Location: Chavannes
(47.1090°N, 0.2226°W)
Time: 14:51:53
(UTC+00:00)

CSL-04 Debris - Pass Details

Date: 16 October 2021
Orbit: 827 x 847 km, 98.9° (Epoch: 06 December)

Event Time Altitude Azimuth Distance (km) Brightness Sun altitude
Exits shadow 19:08:42 20° 156° (SSE) 1,837 5.7 -20.7°
Maximum altitude 19:12:32 78° 72° (ENE) 853 4.0 -21.3°
Drops below altitude 10° 19:17:57 10° 348° (NNW) 2,449 6.9 -22.2°
Sets 19:20:19 0° 347° (NNW) 3,390 7.7 -22.6°
